[[{"header":{"parameterUnit":"m.s-1","parameterCategory":1,"la1":30.2991,"la2":30.254,"lo1":-89.0895,"lo2":-89.0444,"dy":0.0017,"dx":0.0017,"nx":28,"ny":28,"refTime":"2024-10-04T03:00:00:Z","depth":0,"parameterNumber":2,"parameterNumberName":"U-component_of_WINDS"},"data":[0,0,0,0,0,0,0,0,0,0,0,0,0,0,0,0,0,0,0,0,0,0,0,0,0,0,0,0,0,0,0,0,0,0,0,0,0,0,0,0,0,0,0,0,0,0,0,0,0,0,0,0,0,0,0,0,0,0,-4.6806,-4.6806,0,-4.6754,-4.6754,-4.6753,-4.6574,-4.657,-4.6566,-4.6562,-4.6516,-4.6519,-4.6521,0,0,0,0,0,0,0,0,0,0,0,0,0,-4.6756,-4.6758,-4.6806,-4.6806,-4.6805,-4.6755,-4.6754,-4.6753,-4.6575,-4.657,-4.6565,-4.656,-4.6515,-4.6518,-4.6521,0,0,0,0,0,0,0,0,0,0,0,0,0,-4.6749,-4.6758,-4.6806,-4.671,-4.67,-4.6755,-4.6754,-4.6753,-4.6576,-4.657,-4.6564,-4.6558,-4.6514,-4.6518,-4.6522,-4.6667,0,0,-4.6534,-4.6535,0,0,0,0,0,0,0,0,-4.6749,-4.6751,-4.6725,-4.6716,-4.6706,-4.6664,-4.6719,-4.6725,-4.6577,-4.6624,-4.6562,-4.6555,-4.6571,-4.657,-4.6574,-4.6665,-4.6663,-4.6534,-4.6536,-4.6538,-4.6539,0,0,0,0,0,0,0,-4.675,-4.6752,-4.6786,-4.6724,-4.6713,-4.6671,-4.6663,-4.6719,-4.6632,-4.6619,-4.6606,-4.6602,-4.6565,-4.657,-4.6571,-4.6663,-4.6534,-4.6537,-4.654,-4.6541,-4.687,-4.6876,0,0,0,0,0,0,-4.6763,-4.6754,-4.6787,-4.6784,-4.6713,-4.6677,-4.6668,-4.6684,-4.6631,-4.6617,-4.6607,-4.6594,-4.6567,-4.6567,-4.6569,-4.6735,-4.6538,-4.6542,-4.6544,-4.6864,-4.6871,-4.6878,0,0,0,0,0,0,-4.6763,-4.6768,-4.679,-4.6765,-4.6765,-4.6684,-4.6704,-4.6686,-4.6691,-4.6622,-4.6606,-4.6628,-4.6562,-4.6564,-4.6643,-4.6731,-4.6543,-4.6547,-4.6856,-4.6866,-4.6875,-4.7069,0,0,0,0,0,0,-4.6762,-4.6769,-4.6823,-4.6768,-4.6767,-4.6864,-4.6709,-4.669,-4.6698,-4.668,-4.6638,-4.6625,-4.6557,-4.6639,-4.6647,-4.6733,-4.655,-4.6848,-4.6861,-4.6872,-4.7055,-4.7084,-4.711,0,0,0,0,0,-4.6761,-4.6881,-4.6826,-4.6831,-4.6831,-4.687,-4.6869,-4.6787,-4.6706,-4.6759,-4.6714,-4.6626,-4.672,-4.6648,-4.6657,-4.6745,-4.6842,-4.6857,-4.6871,-4.7042,-4.7079,-4.7109,0,0,0,0,0,0,-4.6951,-4.6872,-4.681,-4.6916,-4.69,-4.6839,-4.6904,-4.6828,-4.6837,-4.682,-4.672,-4.6712,-4.6806,-4.6783,-4.6705,-4.6882,-4.6766,-4.6783,-4.6894,-4.6927,-4.6955,-4.6958,-4.6553,0,0,0,0,0,-4.7005,-4.704,-4.697,-4.707,-4.7065,-4.6987,-4.7,-4.6938,-4.6919,-4.6912,-4.6873,-4.686,-4.6885,-4.6905,-4.6925,-4.705,-4.7039,-4.7115,-4.7142,-4.7165,-4.7181,-4.7245,-4.7278,-4.6926,-4.6926,-4.6926,0,0,-4.7117,-4.7078,-4.7108,-4.7107,-4.7088,-4.7128,-4.6983,-4.7032,-4.7061,-4.692,-4.6992,-4.6964,-4.6942,-4.7045,-4.7088,-4.7029,-4.7276,-4.7184,-4.7202,-4.7206,-4.7263,-4.7297,-4.7326,-4.6936,-4.6934,-4.6932,0,0,-4.7342,-4.7317,-4.7396,-4.7379,-4.735,-4.7297,-4.7316,-4.7266,-4.7241,-4.7311,-4.7205,-4.724,-4.7287,-4.7276,-4.7276,-4.7496,-4.7415,-4.7505,-4.7649,-4.7713,-4.774,-4.7764,-4.7843,-4.7872,-4.7521,-4.7522,-4.7522,0,-4.7486,-4.7541,-4.7447,-4.7503,-4.7506,-4.7377,-4.7457,-4.7446,-4.7428,-4.7433,-4.7366,-4.7421,-4.7398,-4.7496,-4.7549,-4.7554,-4.7574,-4.751,-4.7744,-4.7767,-4.7788,-4.7861,-4.7891,-4.7533,-4.7532,-4.753,-4.7529,0,-4.7719,-4.7759,-4.7827,-4.7808,-4.7819,-4.7887,-4.7805,-4.7828,-4.7764,-4.7719,-4.7792,-4.7759,-4.777,-4.7788,-4.7728,-4.7878,-4.7842,-4.7761,-4.7643,-4.7834,-4.7901,-4.7929,-4.7549,-4.7545,-4.7541,-4.7539,0,0,-4.8064,-4.7991,-4.8017,-4.8007,-4.7965,-4.7995,-4.8057,-4.8065,-4.8086,-4.8078,-4.8128,-4.817,-4.8094,-4.8095,-4.8032,-4.8088,-4.8263,-4.7999,-4.7997,-4.805,-4.8426,-4.8488,-4.8522,-4.8209,-4.8214,-4.8218,-4.8428,0,-4.8277,-4.8377,-4.8294,-4.841,-4.8446,-4.8323,-4.8377,-4.8359,-4.8318,-4.8343,-4.8298,-4.8329,-4.8227,-4.8226,-4.8276,-4.8231,-4.8337,-4.8215,-4.8257,-4.8259,-4.8266,-4.8557,-4.8622,-4.8822,-4.8454,-4.8458,-4.8461,0,-4.854,-4.8539,-4.8659,-4.8607,-4.8619,-4.8669,-4.8669,-4.8694,-4.8671,-4.8637,-4.8637,-4.8559,-4.8618,-4.8502,-4.8582,-4.8501,-4.8513,-4.8494,-4.8499,-4.8501,-4.8372,-4.8566,-4.8883,-4.8914,-4.8502,-4.8499,-4.8496,0,-4.8779,-4.8809,-4.8883,-4.8878,-4.882,-4.8858,-4.8837,-4.8807,-4.8816,-4.8817,-4.8822,-4.8831,-4.8837,-4.8846,-4.8773,-4.8695,-4.8863,-4.8741,-4.8838,-4.884,-4.8879,-4.8878,-4.9204,-4.8888,-4.8887,-4.8887,-4.8886,0,-4.9026,-4.9104,-4.8989,-4.9036,-4.9119,-4.9023,-4.9109,-4.9075,-4.9049,-4.9088,-4.8983,-4.9022,-4.8922,-4.8951,-4.8895,-4.897,-4.8974,-4.8949,-4.8933,-4.8958,-4.8962,-4.8965,-4.895,-4.8894,-4.8893,-4.8891,-4.889,0,-4.9309,-4.9235,-4.9307,-4.9246,-4.9232,-4.9296,-4.9244,-4.9285,-4.9236,-4.9286,-4.9292,-4.9217,-4.9245,-4.9172,-4.9191,-4.9153,-4.9261,-4.9223,-4.9268,-4.9257,-4.9358,-4.935,-4.9698,-4.9739,-4.9397,-4.94,-4.9403,0,-4.9471,-4.9527,-4.9471,-4.9487,-4.947,-4.9499,-4.9507,-4.9415,-4.9429,-4.9405,-4.945,-4.9468,-4.9479,-4.953,-4.9478,-4.9492,-4.9453,-4.9574,-4.9455,-4.9479,-4.9455,-4.9453,-4.9458,-4.96,-4.9604,-4.9607,-4.961,0,-4.9768,-4.9728,-4.9742,-4.9744,-4.9756,-4.9754,-4.9745,-4.9765,-4.9667,-4.9687,-4.9713,-4.9721,-4.9738,-4.9759,-4.9761,-4.974,-4.966,-4.9648,-4.9671,-4.9698,-4.9722,-4.971,-4.9336,-4.964,-4.9637,-4.9635,-4.9633,-4.9632,-4.9995,-5.0038,-5.0005,-5.0024,-5.0007,-5.0,-5.0035,-4.9989,-5.0008,-5.0013,-4.9958,-4.9996,-4.997,-4.9963,-4.9951,-4.9981,-4.9926,-4.996,-4.9968,-4.9978,-4.9995,-4.9716,-4.9981,-4.998,-4.9979,-4.9978,-4.9977,0,-5.0286,-5.0257,-5.0276,-5.0264,-5.028,-5.0199,-5.0184,-5.0204,-5.0237,-5.0219,-5.023,-5.0261,-5.028,-5.0229,-5.024,-5.0274,-5.0238,-5.028,-5.0277,-5.0274,-5.0043,-5.0022,-5.031,-5.031,-5.0309,-5.0309,-5.0309,-5.0309,-5.0439,-5.0508,-5.0464,-5.0524,-5.0495,-5.0529,-5.0528,-5.0521,-5.0506,-5.0543,-5.0557,-5.0522,-5.0491,-5.05,-5.0514,-5.0499,-5.0509,-5.0564,-5.0537,-5.0323,-5.029,-5.0259,-5.0239,-5.0567,-5.0568,-5.0764,-5.0766,-5.0768]},{"header":{"parameterUnit":"m.s-1","parameterCategory":1,"la1":30.2991,"la2":30.254,"lo1":-89.0895,"lo2":-89.0444,"dy":0.0017,"dx":0.0017,"nx":28,"ny":28,"refTime":"2024-10-04T03:00:00:Z","depth":0,"parameterNumber":3,"parameterNumberName":"V-component_of_WINDS"},"data":[0,0,0,0,0,0,0,0,0,0,0,0,0,0,0,0,0,0,0,0,0,0,0,0,0,0,0,0,0,0,0,0,0,0,0,0,0,0,0,0,0,0,0,0,0,0,0,0,0,0,0,0,0,0,0,0,0,0,-2.6637,-2.6638,0,-2.6692,-2.6693,-2.6693,-2.666,-2.6658,-2.6657,-2.6655,-2.6711,-2.6714,-2.6717,0,0,0,0,0,0,0,0,0,0,0,0,0,-2.6501,-2.6503,-2.6637,-2.6638,-2.6638,-2.6692,-2.6693,-2.6693,-2.666,-2.6658,-2.6656,-2.6654,-2.671,-2.6713,-2.6717,0,0,0,0,0,0,0,0,0,0,0,0,0,-2.6558,-2.6504,-2.6637,-2.6628,-2.6628,-2.6692,-2.6693,-2.6694,-2.666,-2.6658,-2.6656,-2.6653,-2.6709,-2.6713,-2.6717,-2.6792,0,0,-2.6731,-2.6733,0,0,0,0,0,0,0,0,-2.6555,-2.6563,-2.6629,-2.6629,-2.6629,-2.6667,-2.6665,-2.6727,-2.6661,-2.6648,-2.6655,-2.6652,-2.6698,-2.6703,-2.6719,-2.6795,-2.6797,-2.6731,-2.6734,-2.6736,-2.6737,0,0,0,0,0,0,0,-2.6551,-2.6561,-2.6659,-2.663,-2.663,-2.6621,-2.6626,-2.6677,-2.6686,-2.6649,-2.6647,-2.6654,-2.6697,-2.6714,-2.672,-2.6798,-2.6731,-2.6735,-2.6738,-2.674,-2.6937,-2.6939,0,0,0,0,0,0,-2.6548,-2.6558,-2.6657,-2.666,-2.6585,-2.6625,-2.6631,-2.6657,-2.6685,-2.6687,-2.6656,-2.6652,-2.6708,-2.6715,-2.6722,-2.681,-2.6736,-2.674,-2.6743,-2.6934,-2.6937,-2.694,0,0,0,0,0,0,-2.6545,-2.6557,-2.6655,-2.6608,-2.662,-2.663,-2.6659,-2.6659,-2.6676,-2.669,-2.6691,-2.6672,-2.6706,-2.6715,-2.6775,-2.6812,-2.6742,-2.6746,-2.6931,-2.6935,-2.6939,-2.699,0,0,0,0,0,0,-2.6541,-2.6556,-2.6586,-2.6609,-2.6623,-2.6708,-2.6661,-2.6662,-2.6684,-2.668,-2.6705,-2.6707,-2.6705,-2.6768,-2.6779,-2.6817,-2.675,-2.6928,-2.6933,-2.6938,-2.6985,-2.6995,-2.7003,0,0,0,0,0,-2.6537,-2.6598,-2.6588,-2.66,-2.666,-2.671,-2.6718,-2.6714,-2.6687,-2.6716,-2.6725,-2.6707,-2.6806,-2.6775,-2.6787,-2.6826,-2.6926,-2.6932,-2.6937,-2.698,-2.6993,-2.7003,0,0,0,0,0,0,-2.658,-2.6601,-2.659,-2.6661,-2.6684,-2.6705,-2.6742,-2.6728,-2.6759,-2.6754,-2.6747,-2.6753,-2.6815,-2.6826,-2.6791,-2.6899,-2.6861,-2.687,-2.689,-2.6902,-2.6911,-2.6907,-2.6753,0,0,0,0,0,-2.6597,-2.6637,-2.6653,-2.6714,-2.6727,-2.6732,-2.6754,-2.6749,-2.6772,-2.6782,-2.6795,-2.6818,-2.6854,-2.6879,-2.6913,-2.6985,-2.699,-2.7018,-2.7028,-2.7035,-2.7043,-2.7081,-2.7093,-2.6959,-2.6959,-2.6959,0,0,-2.6634,-2.6651,-2.6677,-2.6723,-2.6741,-2.6781,-2.6741,-2.6785,-2.6815,-2.6789,-2.6846,-2.6856,-2.6881,-2.6947,-2.6977,-2.6958,-2.7081,-2.7043,-2.7049,-2.7052,-2.7088,-2.7101,-2.7112,-2.6963,-2.6962,-2.6962,0,0,-2.6722,-2.6739,-2.6792,-2.6809,-2.6836,-2.6838,-2.6851,-2.6873,-2.6879,-2.6935,-2.6916,-2.695,-2.7013,-2.7032,-2.7049,-2.7142,-2.7125,-2.7153,-2.7202,-2.7239,-2.7249,-2.7259,-2.7291,-2.7303,-2.716,-2.716,-2.716,0,-2.6765,-2.6826,-2.682,-2.6866,-2.6886,-2.6864,-2.6916,-2.6933,-2.6969,-2.6984,-2.6962,-2.7039,-2.7055,-2.7124,-2.7146,-2.7161,-2.7175,-2.715,-2.7248,-2.7258,-2.7266,-2.7297,-2.7309,-2.7163,-2.7163,-2.7163,-2.7162,0,-2.6877,-2.6919,-2.6957,-2.6993,-2.7017,-2.7066,-2.7066,-2.7092,-2.7084,-2.7089,-2.7146,-2.7163,-2.72,-2.7215,-2.7209,-2.7283,-2.7271,-2.7249,-2.7211,-2.7282,-2.7311,-2.7323,-2.7168,-2.7167,-2.7166,-2.7165,0,0,-2.6996,-2.7025,-2.704,-2.7054,-2.708,-2.7112,-2.7159,-2.7194,-2.7216,-2.7241,-2.728,-2.7332,-2.7311,-2.7331,-2.7326,-2.7358,-2.7429,-2.7332,-2.7332,-2.7349,-2.7511,-2.7528,-2.7542,-2.7418,-2.742,-2.7422,-2.7509,0,-2.7085,-2.7168,-2.7162,-2.7239,-2.7277,-2.7255,-2.7295,-2.7315,-2.732,-2.7352,-2.7357,-2.7394,-2.7364,-2.7376,-2.7407,-2.7414,-2.7461,-2.7407,-2.7453,-2.7455,-2.7448,-2.7557,-2.7575,-2.7657,-2.752,-2.7522,-2.7524,0,-2.7202,-2.723,-2.7311,-2.7329,-2.7345,-2.7382,-2.7413,-2.7444,-2.7465,-2.7466,-2.7487,-2.7476,-2.7521,-2.7481,-2.7544,-2.7507,-2.7525,-2.7531,-2.7534,-2.7539,-2.7494,-2.7565,-2.7683,-2.7696,-2.7541,-2.754,-2.7539,0,-2.728,-2.7338,-2.7394,-2.7407,-2.743,-2.7456,-2.7467,-2.7485,-2.7506,-2.7533,-2.7546,-2.7578,-2.7596,-2.762,-2.7617,-2.7588,-2.768,-2.764,-2.7682,-2.7683,-2.7704,-2.7703,-2.7827,-2.7715,-2.7714,-2.7714,-2.7714,0,-2.7381,-2.7432,-2.7429,-2.7463,-2.7518,-2.751,-2.7565,-2.7572,-2.7589,-2.7623,-2.7605,-2.7638,-2.7631,-2.7663,-2.7661,-2.7713,-2.7721,-2.7722,-2.7721,-2.7725,-2.7724,-2.7737,-2.7732,-2.7717,-2.7717,-2.7716,-2.7716,0,-2.7479,-2.748,-2.7538,-2.7554,-2.7559,-2.7599,-2.7613,-2.7644,-2.7647,-2.769,-2.77,-2.7704,-2.7741,-2.7739,-2.7781,-2.7779,-2.7843,-2.7835,-2.7836,-2.7835,-2.7877,-2.7873,-2.8014,-2.8032,-2.7908,-2.7909,-2.791,0,-2.7544,-2.7582,-2.7602,-2.7624,-2.7636,-2.7671,-2.7692,-2.7685,-2.7707,-2.7733,-2.7761,-2.7796,-2.7824,-2.7883,-2.7889,-2.7921,-2.7914,-2.7961,-2.7918,-2.792,-2.7914,-2.7913,-2.7916,-2.797,-2.7971,-2.7972,-2.7973,0,-2.766,-2.7657,-2.7688,-2.7719,-2.7744,-2.7768,-2.779,-2.7808,-2.7803,-2.7829,-2.7866,-2.7887,-2.7929,-2.7964,-2.7993,-2.8003,-2.7988,-2.7986,-2.7998,-2.8002,-2.8001,-2.8002,-2.7859,-2.7983,-2.7982,-2.7982,-2.7981,-2.7981,-2.7743,-2.7775,-2.7793,-2.7828,-2.7843,-2.7863,-2.7893,-2.7899,-2.793,-2.7963,-2.7957,-2.7998,-2.8016,-2.8054,-2.8067,-2.8098,-2.8082,-2.8098,-2.8102,-2.8107,-2.8112,-2.7995,-2.8104,-2.8103,-2.8103,-2.8103,-2.8103,0,-2.7857,-2.7867,-2.7899,-2.793,-2.7956,-2.7938,-2.796,-2.7984,-2.802,-2.8038,-2.8065,-2.8107,-2.814,-2.8148,-2.8179,-2.8203,-2.8196,-2.8211,-2.821,-2.8212,-2.8125,-2.8112,-2.8216,-2.8216,-2.8216,-2.8216,-2.8216,-2.8216,-2.792,-2.7973,-2.7972,-2.8032,-2.8041,-2.8082,-2.8096,-2.8114,-2.8128,-2.8175,-2.8202,-2.8207,-2.822,-2.8252,-2.8281,-2.8282,-2.8295,-2.8313,-2.8311,-2.823,-2.8219,-2.8208,-2.8196,-2.8315,-2.8316,-2.8396,-2.8397,-2.8397]}]]